#timestamp,LO_Frequency,Hit,StdDev 
1521187215.3,286047000.7,N
1521187235.1,286046999.8,N
1521187255.9,286046999.7,N
1521187275.7,286047002.3,N
1521187295.6,286047000.0,N
1521187315.4,286046998.2,N
1521187335.2,286047000.5,N
1521187355.1,286047000.6,N
1521187356.0,286047000.6,N
1521187375.8,286047000.9,N
1521187395.7,286047004.0,Y
1521187415.5,286047004.0,P
1521187435.3,286047001.5,N
1521187455.2,286047001.6,N
1521187475.0,286047002.0,N
1521187475.9,286047002.0,N
1521187495.8,286047002.6,N
1521187515.6,286046999.9,N
1521187535.4,286047000.8,N
1521187555.3,286047001.1,N
1521187575.1,286047000.8,N
1521187595.8,286047001.0,N
1521187615.7,286046998.5,N
1521187635.5,286046998.3,N
1521187655.4,286046996.9,N
1521187675.2,286046999.2,N
1521187695.0,286046999.0,N
1521187695.9,286046999.0,N
1521187715.8,286046997.2,N
1521187735.6,286046997.7,N
1521187755.4,286046995.3,N
1521187775.3,286046997.3,N
1521187795.1,286046996.8,N
1521187815.9,286046997.5,N
1521187835.7,286046995.4,N
1521187855.5,286046993.6,N
1521187875.4,286046994.8,N
1521187895.2,286046994.8,N
1521187915.0,286046993.7,N
1521187915.9,286046993.7,N
1521187935.8,286046993.5,N
1521187955.6,286046992.0,N
1521187975.5,286046991.4,N
1521187995.3,286046990.2,Y
1521188015.1,286046993.7,P
1521188035.9,286046994.6,N
1521188055.7,286046994.8,P
1521188075.6,286046994.5,Y
1521188095.4,286046998.9,P
1521188115.2,286046997.0,N
1521188135.1,286046999.2,N
1521188136.0,286046999.2,N
1521188155.8,286046998.5,N
1521188175.7,286046999.4,N
1521188195.5,286046996.8,N
1521188215.3,286046997.2,N
1521188235.2,286046994.9,Y
1521188255.0,286046999.3,P
1521188255.9,286046999.3,N
1521188275.8,286046996.8,P
1521188295.6,286046996.9,N
1521188315.4,286046998.0,N
1521188335.3,286046997.1,N
1521188355.1,286046999.3,N
1521188375.8,286046999.0,N
1521188395.7,286046998.6,N
1521188415.5,286046999.2,N
1521188435.4,286046995.4,Y
1521188455.2,286046997.5,P
1521188475.0,286046996.8,P
1521188505.9,286046996.1,E
1521188515.9,286046995.0,N
1521188535.7,286047001.2,P
1521188555.5,286047001.1,N
1521188575.4,286047000.5,N
1521188595.2,286046998.7,N
1521188615.0,286047000.8,N
1521188615.9,286047000.8,N
1521188635.8,286046998.9,N
1521188655.6,286046999.5,N
1521188675.5,286046999.1,N
1521188695.3,286047001.0,N
1521188715.1,286046999.9,N
1521188735.9,286047000.0,N
1521188755.7,286046999.9,N
1521188775.6,286046999.9,N
1521188795.4,286047002.3,N
1521188815.2,286047000.2,N
1521188835.1,286047000.4,N
1521188836.0,286047000.4,N
1521188855.8,286047000.4,N
1521188875.7,286046999.3,N
1521188895.5,286046998.6,N
1521188915.3,286047000.5,N
1521188935.2,286046998.3,N
1521188955.9,286046998.2,N
1521188975.7,286046999.0,N
1521188995.6,286046999.5,N
1521189015.4,286046999.6,N
1521189035.3,286046996.8,N
1521189055.1,286046997.9,N
1521189056.0,286046997.9,N
1521189075.8,286046995.5,Y
1521189095.7,286046995.2,P
1521189115.5,286046999.6,N
1521189135.3,286046994.9,N
1521189155.2,286046994.9,N
1521189175.0,286046997.8,N
1521189175.9,286046997.8,N
1521189195.8,286046995.7,N
1521189215.6,286046996.0,N
1521189235.4,286046993.4,Y
1521189255.3,286046997.3,P
1521189275.1,286046997.9,P
1521189295.9,286046999.6,N
1521189315.7,286046998.8,N
1521189335.5,286046998.9,N
1521189355.4,286046998.6,N
1521189375.2,286047001.1,N
1521189395.0,286046998.5,N
1521189396.0,286046998.5,N
1521189415.8,286047002.4,N
1521189435.6,286047002.3,N
1521189455.5,286047002.5,N
1521189475.3,286047001.6,N
1521189495.1,286047004.3,N
1521189515.9,286047002.1,N
1521189535.7,286047002.3,N
1521189555.6,286047001.9,N
1521189575.4,286047001.4,N
1521189595.2,286047001.7,N
1521189615.1,286047002.1,N
1521189616.0,286047002.1,N
1521189635.8,286047002.6,N
1521189655.6,286047001.5,N
1521189675.5,286047001.7,N
1521189695.3,286047001.7,N
1521189715.2,286047003.9,N
1521189735.0,286047003.0,N
1521189735.9,286047003.0,N
1521189755.7,286047004.6,N
1521189775.6,286047002.9,N
1521189795.4,286047005.6,N
1521189815.3,286047005.3,N
1521189835.1,286047007.0,Y
1521189855.9,286047005.6,P
1521189875.7,286047007.6,P
1521189895.5,286047005.8,N
1521189915.4,286047003.0,N
1521189935.2,286047003.4,N
1521189955.0,286047005.3,N
1521189955.9,286047005.3,N
1521189975.8,286047005.0,N
1521189995.6,286047006.4,Y
1521190015.5,286047001.5,P
1521190035.3,286047002.2,N
1521190055.1,286047002.1,N
1521190075.9,286047001.8,N
1521190095.7,286047002.6,N
1521190115.6,286047002.1,N
1521190135.4,286047001.4,N
1521190155.2,286047004.2,Y
1521190175.1,286046998.7,P
1521190176.0,286046998.7,N
1521190195.8,286046999.2,N
1521190215.7,286046999.4,N
1521190235.5,286046998.9,N
1521190255.3,286046998.3,N
1521190275.2,286047001.2,N
1521190295.0,286046998.1,N
1521190295.9,286046998.1,N
1521190315.7,286047000.7,N
1521190335.6,286047001.1,N
1521190355.4,286047000.1,N
1521190375.3,286047003.7,N
1521190395.1,286047001.6,N
1521190396.0,286047001.6,N
1521190415.8,286047002.3,N
1521190435.7,286047002.4,N
1521190455.5,286047002.4,N
1521190475.3,286047002.4,N
1521190495.2,286047002.6,N
1521190515.0,286047000.1,N
1521190515.9,286047000.1,N
1521190535.8,286047001.1,N
1521190555.6,286046998.1,N
1521190575.4,286047000.9,N
1521190595.3,286047000.5,N
1521190615.1,286047000.7,N
1521190635.8,286046998.2,N
1521190655.7,286047000.9,N
1521190675.5,286047000.8,N
1521190695.4,286046998.7,N
1521190715.2,286047001.1,N
1521190735.0,286047000.7,N
1521190735.9,286047000.7,N
1521190755.8,286047002.6,N
1521190775.6,286047002.4,N
1521190795.5,286047000.6,N
